Plainview, TX
on Friday, October 6, 2017

Friday
Previous Day Next Day
Daily Summary
 ActualAverage (KLBB)Record (KLBB)
Temperature
Mean Temperature - 65 °F  
Max Temperature 81 °F 78 °F 94 °F (1931)
Min Temperature 61 °F 51 °F 34 °F (2001)
Degree Days
Heating Degree Days 0 3  
Month to date heating degree days 16  
Since 1 July heating degree days 39  
Cooling Degree Days 6 3  
Month to date cooling degree days 19  
Year to date cooling degree days 1768  
Growing Degree Days21 (Base - )  
Moisture
Dew Point 65 °F   
Average Humidity 82    
Maximum Humidity 99    
Minimum Humidity 53    
Precipitation
Precipitation 0.28 in 0.07 in 1.90 in (1954)
Month to date precipitation 0.40  
Year to date precipitation 15.98  
Snow
Snow 0.00 in 0.00 in 0.00 in (2002)
Month to date snowfall 0.0  
Since 1 July snowfall 0.0  
Since 1 September snowfall 0.0  
Snow Depth -   
Wind
Wind Speed 10 mph   
Max Wind Speed 21 mph   
Max Gust Speed 28 mph   
Visibility 9 miles   
Events Rain , Thunderstorm   

Key: T is trace of precipitation, MM is missing value
Source: NWS Daily Summary





Time(CDT)TemperatureDew PointHumidity Pressure Visibility Wind DirectionWind SpeedGust SpeedPrecipitationEvents Conditions
12:15 AM 66.2 °F 65.7 °F 98% 30.08 in 0.8 miles SE 9.2 mph - N/A   Overcast
12:35 AM 66.2 °F 65.8 °F 99% 30.08 in 2.0 miles SE 6.9 mph - N/A   Overcast
12:55 AM 66.2 °F 65.8 °F 99% 30.08 in 4.0 miles SSE 8.1 mph - N/A   Overcast
1:15 AM 66.2 °F 65.7 °F 98% 30.09 in 5.0 miles SSE 4.6 mph - N/A   Mostly Cloudy
1:35 AM 66.0 °F 65.5 °F 98% 30.08 in 5.0 miles SSE 5.8 mph - N/A   Mostly Cloudy
1:55 AM 66.2 °F 65.3 °F 97% 30.07 in 7.0 miles SSE 6.9 mph - N/A   Overcast
2:15 AM 66.4 °F 64.8 °F 95% 30.08 in 10.0 miles South 4.6 mph - N/A Thunderstorm Overcast
2:35 AM 66.2 °F 64.6 °F 94% 30.08 in 10.0 miles SSW 3.5 mph - N/A Thunderstorm Overcast
2:55 AM 66.2 °F 64.4 °F 94% 30.08 in 10.0 miles SW 3.5 mph - N/A Rain , Thunderstorm Light Thunderstorms and Rain
3:15 AM 66.2 °F 64.4 °F 94% 30.09 in 10.0 miles WSW 6.9 mph - N/A Rain , Thunderstorm Light Thunderstorms and Rain
3:35 AM 64.2 °F 63.5 °F 98% 30.09 in 4.0 miles WSW 8.1 mph 17.3 mph 0.10 in Rain , Thunderstorm Heavy Thunderstorms and Rain
3:55 AM 63.9 °F 63.5 °F 99% 30.08 in 5.0 miles WSW 11.5 mph - 0.20 in Rain , Thunderstorm Thunderstorms and Rain
4:15 AM 63.7 °F 63.5 °F 99% 30.06 in 7.0 miles SSW 6.9 mph - 0.03 in Rain Rain
4:35 AM 63.7 °F 63.3 °F 99% 30.04 in 7.0 miles South 6.9 mph - 0.05 in Rain Rain
4:55 AM 63.5 °F 63.1 °F 99% 30.02 in 10.0 miles South 8.1 mph - 0.07 in Rain Light Rain
5:15 AM 63.5 °F 63.0 °F 98% 30.02 in 10.0 miles SSW 12.7 mph 18.4 mph 0.01 in   Mostly Cloudy
5:35 AM 62.8 °F 62.6 °F 99% 30.02 in 10.0 miles SSW 10.4 mph - 0.01 in   Light Drizzle
5:55 AM 62.4 °F 62.1 °F 99% 30.01 in 10.0 miles SW 9.2 mph - 0.01 in   Scattered Clouds
6:15 AM 61.9 °F 61.7 °F 99% 30.02 in 10.0 miles SW 10.4 mph - N/A   Clear
6:35 AM 61.7 °F 61.3 °F 99% 30.02 in 10.0 miles SW 10.4 mph - N/A   Clear
6:55 AM 61.3 °F 61.0 °F 99% 30.01 in 10.0 miles SW 9.2 mph - N/A   Clear
7:15 AM 61.2 °F 61.0 °F 99% 30.00 in 10.0 miles SW 8.1 mph - N/A   Clear
7:35 AM 61.3 °F 61.2 °F 99% 29.99 in 10.0 miles SSW 8.1 mph - N/A   Clear
7:55 AM 62.2 °F 60.8 °F 95% 29.99 in 10.0 miles SW 8.1 mph - N/A   Clear
8:15 AM 62.8 °F 61.2 °F 94% 29.99 in 10.0 miles SW 6.9 mph - N/A   Clear
8:35 AM 63.7 °F 61.3 °F 92% 30.00 in 10.0 miles WSW 6.9 mph - N/A   Clear
8:55 AM 64.0 °F 61.7 °F 92% 30.00 in 10.0 miles SW 10.4 mph - N/A   Clear
9:15 AM 65.7 °F 62.6 °F 90% 30.01 in 10.0 miles WSW 9.2 mph - N/A   Clear
9:35 AM 66.4 °F 63.5 °F 90% 30.01 in 10.0 miles WSW 10.4 mph - N/A   Clear
9:55 AM 67.3 °F 63.9 °F 89% 30.00 in 10.0 miles WSW 10.4 mph - N/A   Clear
10:15 AM 68.0 °F 63.9 °F 87% 30.00 in 10.0 miles SW 15.0 mph 19.6 mph N/A   Clear
10:35 AM 69.8 °F 64.4 °F 83% 29.99 in 10.0 miles SW 12.7 mph - N/A   Scattered Clouds
10:55 AM 71.6 °F 65.3 °F 80% 29.99 in 10.0 miles SW 15.0 mph 18.4 mph N/A   Scattered Clouds
11:15 AM 72.5 °F 65.1 °F 78% 29.98 in 10.0 miles SW 15.0 mph - N/A   Clear
11:35 AM 73.4 °F 65.7 °F 77% 29.97 in 10.0 miles SSW 11.5 mph 19.6 mph N/A   Clear
11:55 AM 73.4 °F 65.5 °F 76% 29.97 in 10.0 miles SW 16.1 mph 23.0 mph N/A   Clear
12:15 PM 72.0 °F 65.1 °F 79% 29.97 in 10.0 miles SW 16.1 mph 21.9 mph N/A   Scattered Clouds
12:35 PM 71.4 °F 65.1 °F 80% 29.96 in 10.0 miles SW 13.8 mph 23.0 mph N/A   Mostly Cloudy
12:55 PM 74.3 °F 66.0 °F 75% 29.95 in 10.0 miles SW 15.0 mph 19.6 mph N/A   Mostly Cloudy
1:15 PM 74.1 °F 65.7 °F 75% 29.94 in 10.0 miles SW 15.0 mph 21.9 mph N/A   Scattered Clouds
1:35 PM 74.5 °F 65.8 °F 74% 29.92 in 10.0 miles SW 13.8 mph 20.7 mph N/A   Scattered Clouds
1:55 PM 75.2 °F 65.7 °F 72% 29.91 in 10.0 miles SW 15.0 mph 23.0 mph N/A   Scattered Clouds
2:15 PM 77.0 °F 66.7 °F 70% 29.89 in 10.0 miles SSW 12.7 mph 18.4 mph N/A   Scattered Clouds
2:35 PM 77.0 °F 66.7 °F 70% 29.88 in 10.0 miles SW 11.5 mph 20.7 mph N/A   Scattered Clouds
2:55 PM 78.3 °F 67.1 °F 68% 29.87 in 10.0 miles SW 12.7 mph 21.9 mph N/A   Scattered Clouds
3:15 PM 79.0 °F 67.3 °F 67% 29.86 in 10.0 miles SW 15.0 mph 21.9 mph N/A   Scattered Clouds
3:35 PM 79.3 °F 67.5 °F 67% 29.84 in 10.0 miles SW 11.5 mph 18.4 mph N/A   Scattered Clouds
3:55 PM 79.9 °F 67.5 °F 66% 29.84 in 10.0 miles SW 16.1 mph 20.7 mph N/A   Scattered Clouds
4:15 PM 79.9 °F 67.8 °F 66% 29.83 in 10.0 miles SW 15.0 mph - N/A   Scattered Clouds
4:35 PM 81.0 °F 67.8 °F 64% 29.82 in 10.0 miles SW 16.1 mph 24.2 mph N/A   Scattered Clouds
4:55 PM 80.8 °F 67.5 °F 64% 29.81 in 10.0 miles SSW 15.0 mph 23.0 mph N/A   Clear
5:15 PM 81.0 °F 67.6 °F 64% 29.79 in 10.0 miles SW 16.1 mph 20.7 mph N/A   Scattered Clouds
5:35 PM 81.0 °F 68.0 °F 65% 29.79 in 10.0 miles SSW 12.7 mph 21.9 mph N/A   Clear
5:55 PM 81.5 °F 67.5 °F 62% 29.78 in 10.0 miles SSW 12.7 mph - N/A   Clear
6:15 PM 81.1 °F 67.3 °F 63% 29.77 in 10.0 miles SSW 12.7 mph 20.7 mph N/A   Clear
6:35 PM 80.6 °F 66.9 °F 63% 29.77 in 10.0 miles SSW 11.5 mph 16.1 mph N/A   Clear
6:55 PM 79.5 °F 66.9 °F 65% 29.77 in 10.0 miles SSW 9.2 mph - N/A   Clear
7:15 PM 77.7 °F 67.1 °F 70% 29.77 in 10.0 miles SSW 5.8 mph - N/A   Clear
7:35 PM 75.6 °F 66.7 °F 74% 29.76 in 10.0 miles South 6.9 mph - N/A   Clear
7:55 PM 74.3 °F 67.3 °F 79% 29.76 in 10.0 miles South 6.9 mph - N/A   Clear
8:15 PM 73.4 °F 66.6 °F 79% 29.76 in 10.0 miles South 8.1 mph - N/A   Clear
8:35 PM 72.5 °F 67.3 °F 84% 29.76 in 10.0 miles South 9.2 mph - N/A   Clear
8:55 PM 72.5 °F 67.6 °F 85% 29.75 in 10.0 miles South 11.5 mph - N/A   Clear
9:15 PM 72.5 °F 67.5 °F 84% 29.75 in 10.0 miles South 11.5 mph - N/A   Clear
9:35 PM 72.9 °F 67.3 °F 83% 29.74 in 10.0 miles South 13.8 mph - N/A   Clear
9:55 PM 72.5 °F 67.1 °F 83% 29.74 in 10.0 miles South 12.7 mph 18.4 mph N/A   Clear
10:15 PM 72.5 °F 65.8 °F 80% 29.77 in 10.0 miles WNW 18.4 mph 27.6 mph N/A   Scattered Clouds
10:35 PM 71.8 °F 63.9 °F 76% 29.77 in 10.0 miles West 16.1 mph - N/A Rain , Thunderstorm Light Thunderstorms and Rain
10:55 PM 72.9 °F 61.2 °F 67% 29.77 in 10.0 miles West 19.6 mph 25.3 mph N/A Thunderstorm Overcast
11:15 PM 70.9 °F 55.8 °F 59% 29.77 in 10.0 miles WNW 20.7 mph 26.5 mph N/A   Scattered Clouds
11:35 PM 69.1 °F 51.1 °F 53% 29.79 in 10.0 miles WNW 15.0 mph 23.0 mph N/A   Clear
11:55 PM 66.4 °F 50.5 °F 57% 29.81 in 10.0 miles NW 11.5 mph - N/A   Scattered Clouds
 Powered By Weather Underground